Location: Devore Heights
(34.2372°N, 117.4156°W)
Time: 08:48:44
(UTC+00:00)

A-11 Canister half - Pass Details

Date: 13 September 2024
Orbit: 1515 x 1684 km, 47.2° (Epoch: 07 October)

Event Time Altitude Azimuth Distance (km) Brightness Sun altitude
Rises 11:47:09 0° 291° (WNW) 4,681 - -21.9°
Reaches altitude 10° 11:51:28 10° 273° (W) 3,715 - -21.1°
Maximum altitude 11:57:07 18° 235° (SW) 3,169 - -20.0°
Exits shadow 12:00:31 15° 211° (SSW) 3,404 10.4 -19.3°
Drops below altitude 10° 12:02:53 10° 197° (SSW) 3,781 10.7 -18.8°
Sets 12:07:23 0° 180° (S) 4,796 11.4 -17.9°
